Location: Penton Mewsey
(51.2167°N, 1.5167°W)
Time: 18:29:03
(UTC+00:00)

STARLINK-1212 - Pass Details

Date: 30 March 2020
Orbit: 377 x 382 km, 53.0° (Epoch: 02 June)

Event Time Altitude Azimuth Distance (km) Brightness Sun altitude
Rises 20:01:27 0° 251° (WSW) 2,209 7.5 -13.5°
Reaches altitude 10° 20:03:28 10° 251° (WSW) 1,362 6.3 -13.8°
Maximum altitude 20:06:30 89° 175° (S) 373 2.7 -14.3°
Enters shadow 20:08:04 26° 73° (ENE) 768 4.0 -14.5°
